sat.trackr.live / text

‹ back to catalog

STARLINK-2420

NORAD 47831 · 2021-018AW

PAYLOAD ACTIVE UNKNOWN

§ Identity

Operator
Country
US
Launch date
2021-03-11
Launch site
AFETR
Launch vehicle
Mass (kg)
RCS (m²)

Purposes: comms

External: N2YO · Heavens-Above · Gunter

§ Orbital elements

Epoch: 2026-09-20T02:26:01.250304Z

Period
94.01 min
Inclination
53.1591°
Eccentricity
0.0001323
Mean motion
15.31706708 rev/d
Perigee alt
469.8 km
Apogee alt
471.6 km
Semi-major
6,848.9 km
B*
-1.1757e-5
RAAN
57.9405°
Arg perigee
52.0252°
Mean anomaly
308.0869°
Rev number
30,655

§ Raw data

STARLINK-24201 47831U 21018AW  26263.10140336 -.00000730  00000+0 -11757-4 0  99982 47831  53.1591  57.9405 0001323  52.0252 308.0869 15.31706708306555

JSON: /api/v1/satellites/47831 · /tle

For live sub-satellite position, see the globe view (requires WebGL).

§ Visibility from observer

Set your observer location to see the next 7 days of passes ≥ 10°. The values pass through the URL so the page stays shareable.

No JS? Fill the form by hand. The geolocation button needs JavaScript.